Regional Weather Roundup
Issued by NWS

Home | Current Version | Previous Version | Text Only | Print | Product List | Glossary On
Versions: 1 2 3 4 5 6 7 8 9 10 11 12 13 14 15 16 17 18 19 20 21 22 23 24 25 26 27 28 29 30 31 32 33 34 35 36 37 38 39 40 41 42 43 44 45 46 47 48 49 50
000
ASUS43 KIND 260809
RWRIN

WEATHER ROUNDUP FOR INDIANA
NATIONAL WEATHER SERVICE INDIANAPOLIS IN
400 AM EDT SUN MAR 26 2017

NOTE: "FAIR" INDICATES FEW OR NO CLOUDS BELOW 12,000 FEET WITH NO
SIGNIFICANT WEATHER AND/OR OBSTRUCTIONS TO VISIBILITY.

* - STATION DOES NOT REPORT WEATHER SUCH AS PRECIPITATION OR FOG.

+ - STATION NOT QUALITY CONTROLLED BY THE NATIONAL WEATHER SERVICE.
    USE DATA WITH CAUTION...ESPECIALLY DEWPOINT AND RELATIVE
    HUMIDITY OBSERVATIONS.

INZ001>003-010>013-019-020-260900-
NORTHWEST INDIANA

CITY           SKY/WX    TMP DP  RH WIND       PRES   REMARKS
GARY /AIRPORT/ LGT RAIN  53  50  91 SE8       29.91S
KNOX *+        CLOUDY    46  36  66 E13       29.94S
LA PORTE +     CLOUDY    46  45  95 E9        29.94F FOG
MICHIGAN CITY+ CLOUDY    46  46 100 SE5       29.94S
MONTICELLO +   RAIN      51  50  95 E6        29.92F
RENSSELAER +   LGT RAIN  54  54 100 E10       29.91F
VALPARAISO     HVY RAIN  50  48  93 E9        29.92F FOG

$$

LMZ046-743>745-260900-
SOUTHERN LAKE MICHIGAN

STATION/POSITION TIME  TEMP    WIND        PRES    WAVE
                       AIR SEA DIR/SP/G            HT
                 (UTC) (F)     (DEG/KT/KT) (MB)    (FT)
BURNS HARBOR     0740   52     130/ 10/ 19 1013.5F
MICHIGAN CITY    0740   48     110/ 12/ 14   N/A

$$

INZ004-005-014>016-021>024-260900-
NORTH CENTRAL INDIANA

CITY           SKY/WX    TMP DP  RH WIND       PRES   REMARKS
GOSHEN         CLOUDY    43  39  86 E7        29.97F
LOGANSPORT +   CLOUDY    46  45  93 E10       29.94F
PERU/GRISSOM   LGT RAIN  48  48 100 E8        29.93F
ROCHESTER +    CLOUDY    48  46  93 E8        29.95F
SOUTH BEND     CLOUDY    44  32  62 SE15      29.96F
WARSAW +       CLOUDY    43  41  93 E9        29.96F

$$

INZ006>009-017-018-025>027-260900-
NORTHEAST INDIANA

CITY           SKY/WX    TMP DP  RH WIND       PRES   REMARKS
ANGOLA *+      CLOUDY    39  39 100 E9        30.00F
AUBURN +       DRIZZLE   41  37  87 E9        30.00F
FORT WAYNE     CLOUDY    42  40  92 E14       29.99F
HUNTINGTON +   CLOUDY    42  41  97 E6        29.98F
KENDALLVILLE + LGT RAIN  40  39  97 E9        29.99F

$$

INZ028-029-035-036-043>045-051>053-260900-
WEST CENTRAL INDIANA

CITY           SKY/WX    TMP DP  RH WIND       PRES   REMARKS
CRAWFORDSVL +  RAIN      55  55 100 SE8       29.91F
GREENCASTLE +  LGT RAIN  55  55 100 SE9       29.92S
LAFAYETTE      LGT RAIN  57  57 100 SE7       29.90F
TERRE HAUTE    LGT RAIN  59  56  89 S10       29.89F

$$

INZ030>032-037>040-046>048-054>057-064-065-260900-
CENTRAL INDIANA

CITY           SKY/WX    TMP DP  RH WIND       PRES   REMARKS
CP ATTERBURY + RAIN      57  54  88 SE7       29.96S
FISHERS *+     CLOUDY    55  55 100 S10       29.94F
FRANKFORT +    DRIZZLE   59  57  94 SE7       29.94F
GREENWOOD *+   CLOUDY    58  56  94 S8        29.95F
INDIANAPOLIS   LGT RAIN  58  56  93 SE10      29.93F
-EAGLE CREEK   LGT RAIN  58  55  90 SE6       29.93F
KOKOMO +       LGT RAIN  49  48  97 E7        29.95F
MARION +       CLOUDY    48  47  94 E9        29.96F FOG
MT COMFORT *+  CLOUDY    57  54  88 S10       29.96S
SHELBYVILLE    LGT RAIN  59  54  83 S12       29.95F
ZIONSVILLE +   LGT RAIN  56  55  95 SE6       29.94F

$$

INZ033-034-041-042-049-050-058-059-260900-
EAST CENTRAL INDIANA

CITY           SKY/WX    TMP DP  RH WIND       PRES   REMARKS
MUNCIE         LGT RAIN  61  54  77 S10       29.97S
RICHMOND +     CLOUDY    55  54  94 S6        29.99F

$$

INZ060-061-067>069-081>083-085>088-260900-
SOUTHWEST INDIANA

CITY           SKY/WX    TMP DP  RH WIND       PRES   REMARKS
EVANSVILLE     CLOUDY    60  56  86 S13       29.90F
HUNTINGBURG *+ LGT RAIN  57  55  94 S12       29.92F
WASHINGTON +   CLOUDY    57  56  94 CALM      29.90F

$$

INZ062-063-066-070>080-084-089>092-260900-
SOUTH CENTRAL AND SOUTHEAST INDIANA

CITY           SKY/WX    TMP DP  RH WIND       PRES   REMARKS
BLOOMINGTON    RAIN      58  55  90 SE12      29.92F FOG
MADISON *+     CLOUDY    57  55  94 S6        30.00F
NORTH VERNON + RAIN     N/A N/A N/A S7        29.98F
SEYMOUR +      RAIN      59  57  94 SE8       29.96F

$$




USA.gov is the U.S. government's official web portal to all federal, state and local government web resources and services.